| time (UTC) | temp F | wind direction | speed MPH | gust MPH | rain 1hr in | rain 24hr in | rain mn in | humidity % | barometer mb |
| 20260504221000 | 77 | 298 | 3.0 | 8.0 | 0.00 | 0.00 | 0.00 | 48 | 1009.4 |
| 20260504220500 | 77 | 223 | 4.0 | 8.0 | 0.00 | 0.00 | 0.00 | 46 | 1009.4 |
| 20260504220003 | 77 | 280 | 3.0 | 7.0 | 0.00 | 0.00 | 0.00 | 45 | 1009.5 |
| 20260504215459 | 77 | 209 | 4.0 | 7.0 | 0.00 | 0.00 | 0.00 | 47 | 1009.4 |
| 20260504214959 | 77 | 228 | 4.0 | 10.0 | 0.00 | 0.00 | 0.00 | 48 | 1009.4 |
| 20260504214000 | 77 | 273 | 3.0 | 7.0 | 0.00 | 0.00 | 0.00 | 46 | 1009.5 |
| 20260504213459 | 77 | 217 | 4.0 | 8.0 | 0.00 | 0.00 | 0.00 | 47 | 1009.4 |
| 20260504212500 | 78 | 208 | 4.0 | 8.0 | 0.00 | 0.00 | 0.00 | 47 | 1009.5 |
| 20260504211959 | 78 | 214 | 4.0 | 7.0 | 0.00 | 0.00 | 0.00 | 45 | 1009.5 |
| 20260504211500 | 78 | 190 | 4.0 | 7.0 | 0.00 | 0.00 | 0.00 | 43 | 1009.6 |
| 20260504211000 | 78 | 265 | 4.0 | 7.0 | 0.00 | 0.00 | 0.00 | 42 | 1009.6 |
| 20260504210459 | 78 | 220 | 3.0 | 8.0 | 0.00 | 0.00 | 0.00 | 44 | 1009.8 |
| 20260504210002 | 78 | 260 | 4.0 | 8.0 | 0.00 | 0.00 | 0.00 | 46 | 1009.7 |
| 20260504205502 | 78 | 263 | 4.0 | 7.0 | 0.00 | 0.00 | 0.00 | 45 | 1009.6 |
| 20260504204959 | 78 | 237 | 4.0 | 7.0 | 0.00 | 0.00 | 0.00 | 44 | 1009.8 |
| 20260504204500 | 79 | 225 | 3.0 | 6.0 | 0.00 | 0.00 | 0.00 | 44 | 1009.8 |
| 20260504203459 | 79 | 275 | 3.0 | 7.0 | 0.00 | 0.00 | 0.00 | 46 | 1010.0 |
| 20260504202001 | 79 | 272 | 3.0 | 9.0 | 0.00 | 0.00 | 0.00 | 46 | 1010.3 |
| 20260504201459 | 79 | 202 | 3.0 | 8.0 | 0.00 | 0.00 | 0.00 | 48 | 1010.2 |
| 20260504200958 | 79 | 212 | 3.0 | 8.0 | 0.00 | 0.00 | 0.00 | 46 | 1010.3 |
| 20260504200001 | 79 | 275 | 3.0 | 7.0 | 0.00 | 0.00 | 0.00 | 47 | 1010.4 |
| 20260504195458 | 78 | 227 | 4.0 | 6.0 | 0.00 | 0.00 | 0.00 | 46 | 1010.4 |
| 20260504195000 | 78 | 300 | 4.0 | 8.0 | 0.00 | 0.00 | 0.00 | 46 | 1010.7 |
| 20260504194501 | 79 | 226 | 3.0 | 8.0 | 0.00 | 0.00 | 0.00 | 45 | 1010.7 |
| 20260504193959 | 79 | 196 | 3.0 | 7.0 | 0.00 | 0.00 | 0.00 | 46 | 1010.8 |
| 20260504193458 | 79 | 264 | 4.0 | 8.0 | 0.00 | 0.00 | 0.00 | 48 | 1010.8 |
| 20260504192958 | 78 | 292 | 4.0 | 8.0 | 0.00 | 0.00 | 0.00 | 48 | 1011.0 |
| 20260504192459 | 78 | 212 | 4.0 | 10.0 | 0.00 | 0.00 | 0.00 | 45 | 1011.0 |
| 20260504192000 | 78 | 253 | 3.0 | 10.0 | 0.00 | 0.00 | 0.00 | 48 | 1011.1 |
| 20260504191458 | 78 | 198 | 4.0 | 6.0 | 0.00 | 0.00 | 0.00 | 47 | 1011.2 |
| 20260504190459 | 78 | 211 | 4.0 | 9.0 | 0.00 | 0.00 | 0.00 | 46 | 1011.3 |
| 20260504190003 | 78 | 215 | 4.0 | 8.0 | 0.00 | 0.00 | 0.00 | 47 | 1011.2 |
| 20260504185459 | 78 | 261 | 4.0 | 7.0 | 0.00 | 0.00 | 0.00 | 49 | 1011.3 |
| 20260504185000 | 78 | 218 | 4.0 | 8.0 | 0.00 | 0.00 | 0.00 | 46 | 1011.3 |
| 20260504184459 | 78 | 219 | 4.0 | 8.0 | 0.00 | 0.00 | 0.00 | 49 | 1011.3 |
| 20260504183958 | 78 | 239 | 4.0 | 8.0 | 0.00 | 0.00 | 0.00 | 47 | 1011.3 |
| 20260504183500 | 78 | 216 | 4.0 | 8.0 | 0.00 | 0.00 | 0.00 | 47 | 1011.4 |
| 20260504183000 | 78 | 242 | 4.0 | 7.0 | 0.00 | 0.00 | 0.00 | 48 | 1011.4 |
| 20260504182500 | 78 | 211 | 3.0 | 9.0 | 0.00 | 0.00 | 0.00 | 50 | 1011.5 |
| 20260504182000 | 78 | 196 | 3.0 | 9.0 | 0.00 | 0.00 | 0.00 | 52 | 1011.5 |
| 20260504181501 | 78 | 265 | 3.0 | 6.0 | 0.00 | 0.00 | 0.00 | 47 | 1011.6 |
| 20260504181000 | 78 | 211 | 3.0 | 5.0 | 0.00 | 0.00 | 0.00 | 49 | 1011.6 |
| 20260504180001 | 78 | 215 | 3.0 | 7.0 | 0.00 | 0.00 | 0.00 | 49 | 1011.7 |
| 20260504175000 | 77 | 346 | 3.0 | 12.0 | 0.00 | 0.00 | 0.00 | 50 | 1011.7 |
| 20260504174458 | 77 | 277 | 3.0 | 6.0 | 0.00 | 0.00 | 0.00 | 56 | 1011.9 |
| 20260504173958 | 76 | 247 | 4.0 | 8.0 | 0.00 | 0.00 | 0.00 | 53 | 1012.1 |
| 20260504173500 | 77 | 168 | 3.0 | 8.0 | 0.00 | 0.00 | 0.00 | 51 | 1012.1 |
| 20260504173000 | 77 | 219 | 2.0 | 6.0 | 0.00 | 0.00 | 0.00 | 55 | 1012.0 |
| 20260504172458 | 76 | 294 | 3.0 | 6.0 | 0.00 | 0.00 | 0.00 | 53 | 1012.2 |
| 20260504172000 | 76 | 278 | 3.0 | 7.0 | 0.00 | 0.00 | 0.00 | 56 | 1012.2 |
| 20260504171458 | 76 | 281 | 3.0 | 7.0 | 0.00 | 0.00 | 0.00 | 55 | 1012.4 |
| 20260504170958 | 76 | 220 | 3.0 | 7.0 | 0.00 | 0.00 | 0.00 | 56 | 1012.5 |
| 20260504170458 | 76 | 263 | 4.0 | 8.0 | 0.00 | 0.00 | 0.00 | 55 | 1012.6 |
| 20260504140459 | 67 | 259 | 2.0 | 3.0 | 0.00 | 0.00 | 0.00 | 72 | 1013.7 |
| 20260504130458 | 63 | 278 | 1.0 | 4.0 | 0.00 | 0.00 | 0.00 | 78 | 1013.6 |
| 20260504110459 | 57 | 235 | 0.0 | 2.0 | 0.00 | 0.00 | 0.00 | 83 | 1013.0 |
| 20260504100458 | 58 | 236 | 0.0 | 0.0 | 0.00 | 0.00 | 0.00 | 80 | 1013.0 |
| 20260504081958 | 61 | 236 | 0.0 | 2.0 | 0.00 | 0.00 | 0.00 | 72 | 1013.3 |
| 20260504081458 | 61 | 236 | 0.0 | 1.0 | 0.00 | 0.00 | 0.00 | 72 | 1013.4 |
| 20260504080958 | 61 | 236 | 0.0 | 2.0 | 0.00 | 0.00 | 0.00 | 72 | 1013.3 |
| 20260504080458 | 61 | 236 | 0.0 | 1.0 | 0.00 | 0.00 | 0.00 | 72 | 1013.3 |
| 20260504050500 | 57 | 236 | 0.0 | 0.0 | 0.00 | 0.00 | 0.00 | 73 | 1014.8 |
| 20260504050004 | 58 | 236 | 0.0 | 0.0 | 0.00 | 0.00 | 0.00 | 75 | 1014.7 |
| 20260504045501 | 57 | 236 | 0.0 | 0.0 | 0.00 | 0.00 | 0.00 | 73 | 1014.8 |
| 20260504045000 | 57 | 236 | 0.0 | 0.0 | 0.00 | 0.00 | 0.00 | 74 | 1014.8 |
| 20260504044501 | 58 | 236 | 0.0 | 0.0 | 0.00 | 0.00 | 0.00 | 73 | 1014.7 |
| 20260504044000 | 58 | 236 | 0.0 | 0.0 | 0.00 | 0.00 | 0.00 | 73 | 1014.8 |
| 20260504043500 | 57 | 236 | 0.0 | 0.0 | 0.00 | 0.00 | 0.00 | 73 | 1014.8 |
| 20260504043001 | 57 | 236 | 0.0 | 0.0 | 0.00 | 0.00 | 0.00 | 73 | 1014.8 |
| 20260504042500 | 57 | 236 | 0.0 | 0.0 | 0.00 | 0.00 | 0.00 | 73 | 1014.8 |
| 20260504042000 | 58 | 236 | 0.0 | 0.0 | 0.00 | 0.00 | 0.00 | 75 | 1014.9 |
| 20260504041500 | 57 | 236 | 0.0 | 0.0 | 0.00 | 0.00 | 0.00 | 74 | 1014.9 |
| 20260504040959 | 57 | 236 | 0.0 | 0.0 | 0.00 | 0.00 | 0.00 | 74 | 1014.8 |
| 20260504040501 | 57 | 236 | 0.0 | 0.0 | 0.00 | 0.00 | 0.00 | 73 | 1014.9 |
| 20260504040004 | 57 | 236 | 0.0 | 0.0 | 0.00 | 0.00 | 0.00 | 74 | 1014.8 |
| 20260504035501 | 57 | 236 | 0.0 | 2.0 | 0.00 | 0.00 | 0.00 | 74 | 1014.9 |
| 20260504035001 | 57 | 236 | 0.0 | 2.0 | 0.00 | 0.00 | 0.00 | 75 | 1014.9 |
| 20260504034459 | 58 | 236 | 0.0 | 1.0 | 0.00 | 0.00 | 0.00 | 74 | 1014.9 |
| 20260504034001 | 58 | 236 | 0.0 | 1.0 | 0.00 | 0.00 | 0.00 | 75 | 1014.8 |
| 20260504033000 | 58 | 236 | 0.0 | 1.0 | 0.00 | 0.00 | 0.00 | 74 | 1015.1 |
| 20260504032001 | 58 | 236 | 0.0 | 1.0 | 0.00 | 0.00 | 0.00 | 73 | 1015.2 |
| 20260504031500 | 58 | 236 | 0.0 | 1.0 | 0.00 | 0.00 | 0.00 | 73 | 1015.2 |
| 20260504030459 | 58 | 236 | 0.0 | 1.0 | 0.00 | 0.00 | 0.00 | 73 | 1015.3 |
| 20260504030002 | 58 | 236 | 0.0 | 0.0 | 0.00 | 0.00 | 0.00 | 74 | 1015.3 |
| 20260504025459 | 58 | 236 | 0.0 | 0.0 | 0.00 | 0.00 | 0.00 | 73 | 1015.3 |
| 20260504024500 | 59 | 236 | 0.0 | 1.0 | 0.00 | 0.00 | 0.00 | 72 | 1015.3 |
| 20260504024001 | 59 | 236 | 0.0 | 1.0 | 0.00 | 0.00 | 0.00 | 73 | 1015.2 |
| 20260504023501 | 59 | 236 | 0.0 | 1.0 | 0.00 | 0.00 | 0.00 | 73 | 1015.3 |
| 20260504022503 | 59 | 236 | 0.0 | 0.0 | 0.00 | 0.00 | 0.00 | 71 | 1015.3 |
| 20260504022001 | 59 | 236 | 0.0 | 1.0 | 0.00 | 0.00 | 0.00 | 71 | 1015.2 |
| 20260504021501 | 60 | 236 | 0.0 | 1.0 | 0.00 | 0.00 | 0.00 | 70 | 1015.3 |
| 20260504020500 | 60 | 236 | 0.0 | 1.0 | 0.00 | 0.00 | 0.00 | 69 | 1015.2 |
| 20260504020006 | 60 | 236 | 0.0 | 1.0 | 0.00 | 0.00 | 0.00 | 67 | 1015.2 |
| 20260504015501 | 60 | 236 | 0.0 | 1.0 | 0.00 | 0.00 | 0.00 | 69 | 1015.0 |
| 20260504015002 | 61 | 236 | 0.0 | 0.0 | 0.00 | 0.00 | 0.00 | 69 | 1015.0 |
| 20260504014503 | 61 | 236 | 0.0 | 1.0 | 0.00 | 0.00 | 0.00 | 67 | 1015.0 |
| 20260504014004 | 61 | 236 | 0.0 | 1.0 | 0.00 | 0.00 | 0.00 | 66 | 1014.9 |
| 20260504013502 | 62 | 236 | 0.0 | 1.0 | 0.00 | 0.00 | 0.00 | 66 | 1014.9 |
| 20260504013003 | 62 | 236 | 0.0 | 1.0 | 0.00 | 0.00 | 0.00 | 66 | 1014.9 |
| 20260504012502 | 63 | 236 | 0.0 | 1.0 | 0.00 | 0.00 | 0.00 | 63 | 1014.9 |
| 20260504012001 | 63 | 236 | 0.0 | 1.0 | 0.00 | 0.00 | 0.00 | 64 | 1014.9 |
| 20260504011001 | 64 | 236 | 0.0 | 1.0 | 0.00 | 0.00 | 0.00 | 62 | 1014.8 |
| 20260504010502 | 64 | 236 | 0.0 | 1.0 | 0.00 | 0.00 | 0.00 | 61 | 1014.8 |
| 20260504005500 | 66 | 236 | 0.0 | 0.0 | 0.00 | 0.00 | 0.00 | 58 | 1014.8 |
| 20260504004500 | 67 | 236 | 0.0 | 0.0 | 0.00 | 0.00 | 0.00 | 55 | 1014.8 |
| 20260504004000 | 67 | 236 | 0.0 | 0.0 | 0.00 | 0.00 | 0.00 | 53 | 1014.9 |
| 20260504002959 | 68 | 236 | 0.0 | 0.0 | 0.00 | 0.00 | 0.00 | 52 | 1015.0 |
| 20260504002459 | 69 | 236 | 0.0 | 0.0 | 0.00 | 0.00 | 0.00 | 53 | 1015.0 |
| 20260504002001 | 69 | 236 | 0.0 | 0.0 | 0.00 | 0.00 | 0.00 | 52 | 1014.9 |
| 20260504001459 | 69 | 236 | 0.0 | 2.0 | 0.00 | 0.00 | 0.00 | 50 | 1014.9 |
| 20260504000959 | 69 | 236 | 0.0 | 2.0 | 0.00 | 0.00 | 0.00 | 50 | 1014.9 |
| 20260504000500 | 70 | 236 | 0.0 | 1.0 | 0.00 | 0.00 | 0.00 | 49 | 1014.9 |
| 20260504000001 | 70 | 236 | 0.0 | 1.0 | 0.00 | 0.00 | 0.00 | 50 | 1015.0 |
| 20260503235459 | 70 | 236 | 0.0 | 1.0 | 0.00 | 0.00 | 0.00 | 47 | 1015.1 |
| 20260503234458 | 70 | 236 | 0.0 | 2.0 | 0.00 | 0.00 | 0.00 | 46 | 1015.0 |
| 20260503233958 | 70 | 236 | 0.0 | 2.0 | 0.00 | 0.00 | 0.00 | 44 | 1015.0 |
| 20260503232959 | 71 | 236 | 1.0 | 3.0 | 0.00 | 0.00 | 0.00 | 43 | 1015.2 |
| 20260503232459 | 71 | 236 | 1.0 | 3.0 | 0.00 | 0.00 | 0.00 | 44 | 1015.3 |
| 20260503232000 | 71 | 236 | 1.0 | 3.0 | 0.00 | 0.00 | 0.00 | 44 | 1015.3 |
| 20260503231500 | 71 | 232 | 1.0 | 3.0 | 0.00 | 0.00 | 0.00 | 44 | 1015.3 |
| 20260503231000 | 71 | 232 | 1.0 | 3.0 | 0.00 | 0.00 | 0.00 | 44 | 1015.3 |
| 20260503230459 | 71 | 232 | 1.0 | 3.0 | 0.00 | 0.00 | 0.00 | 42 | 1015.4 |
| 20260503230003 | 71 | 232 | 1.0 | 3.0 | 0.00 | 0.00 | 0.00 | 42 | 1015.4 |
| 20260503225500 | 71 | 232 | 1.0 | 3.0 | 0.00 | 0.00 | 0.00 | 41 | 1015.5 |
| 20260503225000 | 71 | 232 | 2.0 | 3.0 | 0.00 | 0.00 | 0.00 | 42 | 1015.5 |
| 20260503224500 | 71 | 240 | 2.0 | 3.0 | 0.00 | 0.00 | 0.00 | 42 | 1015.4 |
| 20260503224000 | 71 | 255 | 2.0 | 4.0 | 0.00 | 0.00 | 0.00 | 40 | 1015.5 |
| 20260503223459 | 71 | 254 | 2.0 | 4.0 | 0.00 | 0.00 | 0.00 | 40 | 1015.6 |
| 20260503223000 | 71 | 239 | 2.0 | 3.0 | 0.00 | 0.00 | 0.00 | 41 | 1015.7 |
| 20260503222501 | 71 | 240 | 2.0 | 4.0 | 0.00 | 0.00 | 0.00 | 42 | 1015.8 |
| 20260503222001 | 71 | 238 | 1.0 | 4.0 | 0.00 | 0.00 | 0.00 | 41 | 1015.7 |
| 20260503221459 | 71 | 263 | 1.0 | 3.0 | 0.00 | 0.00 | 0.00 | 45 | 1015.7 |